Holdrege, NE

11:33 AM CDT on September 18, 2019 (GMT -0500)
Brewster

Weather History for KHDE - August, 2019

Change the Weather History Date:

Friday, August 16, 2019

  Actual Average Record
Temperature  
Mean Temperature 72 °F -  
Max Temperature 81 °F 87 °F 105 °F (1983)
Min Temperature 62 °F 60 °F 51 °F (1992)
Cooling Degree Days 6    
Growing Degree Days 22 (Base 50)    
Moisture  
Dew Point 65 °F    
Average Humidity 81    
Maximum Humidity 100    
Minimum Humidity 55    
Precipitation  
Precipitation 0.03 in - - ()
Sea Level Pressure  
Sea Level Pressure 29.94 in    
Wind  
Wind Speed 6 mph ()    
Max Wind Speed 17 mph    
Max Gust Speed 21 mph    
Visibility 7.5 miles    
Events Fog , Rain , Thunderstorm    
Averages and records for this station are not official NWS values.
T = Trace of Precipitation, MM = Missing Value Source: Averaged Metar Reports

Daily Weather History Graph

Daily Weather History Graph

Search for Another Location

Airport or City:

Astronomy

Aug. 16, 2019 Rise Set
Actual Time 6:48 AM CDT 8:33 PM CDT
Civil Twilight 6:19 AM CDT 9:02 PM CDT
Nautical Twilight 5:44 AM CDT 9:37 PM CDT
Astronomical Twilight 5:06 AM CDT 10:15 PM CDT
Moon 9:33 PM CDT (8/16) 7:42 AM CDT (8/16)
Length of Visible Light 14h 42m
Length of Day
13h 44m
Full, 99% of the Moon is Illuminated
Aug 16
Full
Aug 23
Last Quarter
Aug 30
New
Sep 5
First Quarter
Sep 13
Full

Hourly Weather History & Observations

Time (CDT) Temp. Heat Index Dew Point Humidity Pressure Visibility Wind Dir Wind Speed Gust Speed Precip Events Conditions
12:15 AM 64.0 °F - 64.0 °F 100% 29.97 in 5.0 mi ENE 3.5 mph - N/A   Clear
12:35 AM 63.9 °F - 63.9 °F 100% 29.97 in 1.8 mi Calm Calm - N/A   Mist
12:55 AM 62.4 °F - 62.4 °F 100% 29.97 in 0.8 mi East 6.9 mph - N/A   Mostly Cloudy
1:15 AM 65.8 °F - 65.8 °F 100% 29.95 in 0.5 mi East 8.1 mph - N/A Fog Fog
1:35 AM 65.7 °F - 65.7 °F 100% 29.96 in 0.2 mi East 8.1 mph - N/A   Light Drizzle
1:55 AM 65.3 °F - 65.3 °F 100% 29.97 in 0.5 mi SE 8.1 mph - N/A Fog Fog
2:15 AM 65.3 °F - 65.3 °F 100% 29.96 in 0.5 mi ESE 9.2 mph - N/A Fog Fog
2:35 AM 65.3 °F - 65.3 °F 100% 29.96 in 0.8 mi SE 5.8 mph - N/A   Overcast
2:55 AM 65.5 °F - 65.5 °F 100% 29.96 in 0.8 mi ESE 3.5 mph - N/A   Overcast
3:15 AM 65.3 °F - 65.3 °F 100% 29.97 in 1.0 mi Calm Calm - N/A Thunderstorm Overcast
3:35 AM 65.3 °F - 65.3 °F 100% 29.97 in 2.5 mi Calm Calm - N/A   Overcast
3:55 AM 64.8 °F - 64.8 °F 100% 29.97 in 2.5 mi Calm Calm - N/A   Overcast
4:15 AM 64.6 °F - 64.6 °F 100% 29.93 in 1.5 mi South 4.6 mph - N/A   Overcast
4:35 AM 64.4 °F - 64.4 °F 100% 29.95 in 0.5 mi Calm Calm - N/A Fog Fog
4:55 AM 64.4 °F - 64.4 °F 100% 29.97 in 2.0 mi Calm Calm - N/A   Overcast
5:15 AM 64.8 °F - 64.8 °F 100% 30.01 in 2.5 mi North 5.8 mph - N/A   Overcast
5:35 AM 64.8 °F - 64.8 °F 100% 29.99 in 2.5 mi NNE 9.2 mph - N/A Rain Light Rain
5:55 AM 64.4 °F - 64.4 °F 100% 29.98 in 2.5 mi North 3.5 mph - N/A   Overcast
6:15 AM 64.8 °F - 64.8 °F 100% 30.07 in 3.0 mi NW 10.4 mph - N/A   Overcast
6:35 AM 65.3 °F - 65.3 °F 100% 30.07 in 3.0 mi North 10.4 mph 20.7 mph 0.01 in Rain Light Rain
6:55 AM 65.5 °F - 65.5 °F 100% 30.08 in 4.0 mi NNW 6.9 mph 16.1 mph 0.01 in Rain , Thunderstorm Light Thunderstorms and Rain
7:15 AM 65.3 °F - 65.3 °F 100% 30.05 in 5.0 mi NNE 5.8 mph - N/A   Light Drizzle
7:35 AM 64.4 °F - 64.4 °F 100% 29.99 in 10.0 mi East 11.5 mph - 0.02 in Rain Light Rain
7:55 AM 64.6 °F - 63.5 °F 96% 29.94 in 10.0 mi ENE 17.3 mph 20.7 mph 0.02 in Rain Light Rain
8:15 AM 65.3 °F - 61.5 °F 88% 29.91 in 10.0 mi East 15.0 mph - N/A   Clear
8:35 AM 65.1 °F - 60.8 °F 86% 29.91 in 10.0 mi East 11.5 mph - N/A   Clear
8:55 AM 66.9 °F - 60.8 °F 81% 29.91 in 10.0 mi ENE 8.1 mph - N/A   Clear
9:15 AM 68.9 °F - 60.4 °F 74% 29.93 in 10.0 mi ENE 5.8 mph - N/A   Clear
9:35 AM 68.4 °F - 61.9 °F 80% 29.94 in 10.0 mi ENE 4.6 mph - N/A   Scattered Clouds
9:55 AM 71.1 °F - 62.1 °F 73% 29.94 in 10.0 mi East 5.8 mph - N/A   Scattered Clouds
10:15 AM 72.7 °F - 61.9 °F 69% 29.95 in 10.0 mi ESE 6.9 mph - N/A   Clear
10:35 AM 73.6 °F - 60.3 °F 63% 29.97 in 10.0 mi East 4.6 mph - N/A   Clear
10:55 AM 74.7 °F - 59.4 °F 59% 29.95 in 10.0 mi ESE 8.1 mph - N/A   Clear
11:15 AM 75.2 °F - 59.2 °F 57% 29.95 in 10.0 mi SE 6.9 mph - N/A   Clear
11:35 AM 76.3 °F - 59.7 °F 56% 29.95 in 10.0 mi SE 8.1 mph - N/A   Clear
11:55 AM 77.2 °F - 60.1 °F 55% 29.96 in 10.0 mi South 8.1 mph - N/A   Clear
12:15 PM 78.1 °F - 61.0 °F 56% 29.97 in 10.0 mi SSE 6.9 mph - N/A   Clear
12:35 PM 78.8 °F - 62.6 °F 57% 29.97 in 10.0 mi ESE 4.6 mph - N/A   Clear
12:55 PM 79.2 °F - 63.0 °F 57% 29.97 in 10.0 mi ENE 5.8 mph - N/A   Clear
1:15 PM 79.5 °F - 63.3 °F 58% 29.96 in 10.0 mi ENE 9.2 mph - N/A   Clear
1:35 PM 79.5 °F - 64.0 °F 59% 29.95 in 10.0 mi East 5.8 mph - N/A   Clear
1:55 PM 79.7 °F - 63.5 °F 58% 29.93 in 10.0 mi East 5.8 mph - N/A   Clear
2:15 PM 80.6 °F 82.2 °F 64.2 °F 57% 29.92 in 10.0 mi SE 6.9 mph - N/A   Clear
2:35 PM 80.6 °F 82.5 °F 65.5 °F 60% 29.92 in 10.0 mi ESE 8.1 mph - N/A   Clear
2:55 PM 80.8 °F 82.5 °F 64.8 °F 58% 29.92 in 10.0 mi ESE 9.2 mph - N/A   Clear
3:15 PM 80.8 °F 82.6 °F 65.1 °F 59% 29.91 in 10.0 mi East 9.2 mph - N/A   Clear
3:35 PM 81.3 °F 83.2 °F 65.5 °F 58% 29.91 in 10.0 mi ESE 6.9 mph - N/A   Clear
3:55 PM 81.5 °F 83.7 °F 66.6 °F 60% 29.90 in 10.0 mi ESE 6.9 mph - N/A   Clear
4:15 PM 81.1 °F 83.4 °F 66.4 °F 61% 29.90 in 10.0 mi ESE 6.9 mph - N/A   Clear
4:35 PM 81.7 °F 84.2 °F 66.9 °F 61% 29.89 in 10.0 mi ESE 6.9 mph - N/A   Clear
4:55 PM 81.3 °F 83.8 °F 67.3 °F 62% 29.89 in 10.0 mi East 9.2 mph - N/A   Clear
5:15 PM 81.0 °F 83.3 °F 66.9 °F 62% 29.88 in 10.0 mi ESE 11.5 mph - N/A   Clear
5:35 PM 81.0 °F 83.4 °F 67.3 °F 63% 29.88 in 10.0 mi ESE 9.2 mph - N/A   Clear
5:55 PM 80.6 °F 82.9 °F 67.1 °F 63% 29.87 in 10.0 mi East 9.2 mph - N/A   Clear
6:15 PM 80.4 °F 82.8 °F 67.3 °F 64% 29.86 in 10.0 mi ESE 11.5 mph - N/A   Clear
6:35 PM 79.7 °F - 66.9 °F 65% 29.86 in 10.0 mi East 10.4 mph - N/A   Clear
6:55 PM 79.2 °F - 67.3 °F 67% 29.86 in 10.0 mi East 8.1 mph - N/A   Clear
7:15 PM 78.1 °F - 68.4 °F 72% 29.86 in 10.0 mi East 9.2 mph - N/A   Clear
7:35 PM 76.1 °F - 69.1 °F 79% 29.86 in 10.0 mi East 6.9 mph - N/A   Clear
7:55 PM 74.7 °F - 69.3 °F 83% 29.87 in 10.0 mi ENE 5.8 mph - N/A   Clear
8:15 PM 73.6 °F - 69.8 °F 88% 29.88 in 10.0 mi ENE 5.8 mph - N/A   Scattered Clouds
8:35 PM 73.4 °F - 70.2 °F 90% 29.88 in 10.0 mi ENE 4.6 mph - N/A   Overcast
8:55 PM 72.5 °F - 69.4 °F 90% 29.88 in 10.0 mi East 6.9 mph - N/A   Mostly Cloudy
9:15 PM 72.7 °F - 69.3 °F 89% 29.89 in 10.0 mi Calm Calm - N/A   Overcast
9:35 PM 72.5 °F - 69.6 °F 91% 29.90 in 10.0 mi Calm Calm - N/A   Overcast
9:55 PM 72.7 °F - 69.6 °F 90% 29.87 in 10.0 mi ESE 15.0 mph 19.6 mph N/A   Mostly Cloudy
10:15 PM 72.9 °F - 69.8 °F 90% 29.89 in 10.0 mi East 9.2 mph - N/A   Mostly Cloudy
10:35 PM 72.0 °F - 69.8 °F 93% 29.89 in 10.0 mi East 9.2 mph - N/A   Mostly Cloudy
10:55 PM 72.3 °F - 70.2 °F 93% 29.91 in 10.0 mi East 9.2 mph - N/A   Overcast
11:15 PM 72.1 °F - 70.2 °F 93% 29.93 in 10.0 mi East 5.8 mph - N/A   Overcast
11:35 PM 72.1 °F - 70.3 °F 94% 29.93 in 10.0 mi ENE 9.2 mph - N/A   Mostly Cloudy
11:55 PM 70.9 °F - 70.0 °F 97% 29.94 in 10.0 mi NE 9.2 mph - N/A   Scattered Clouds